Location: Unspecified
(40.9447°N, 78.9903°W)
Time: 10:28:54
(UTC-04:00)

Resurs 1-4 Rocket - Pass Details

Date: 27 July 2021
Orbit: 799 x 814 km, 98.6° (Epoch: 27 September)

Event Time Altitude Azimuth Distance (km) Brightness Sun altitude
Rises 02:06:03 0° 23° (NNE) 3,341 6.5 -29.1°
Reaches altitude 10° 02:08:37 10° 32° (NNE) 2,402 5.4 -29.0°
Enters shadow 02:13:23 34° 96° (E) 1,307 3.2 -28.8°
